Location: Unspecified
(40.7945°N, 111.1337°W)
Time: 12:39:14
(UTC-06:00)

ISS - Pass Details

Date: 29 March 2019
Orbit: 408 x 410 km, 51.6° (Epoch: 25 April)

Event Time Altitude Azimuth Distance (km) Brightness Sun altitude
Rises 20:47:08 0° 296° (WNW) 2,330 1.9 -12.2°
Reaches altitude 10° 20:50:09 10° 327° (NNW) 1,469 -0.2 -12.7°
Maximum altitude 20:51:44 13° 355° (N) 1,310 -1.0 -13.0°
Drops below altitude 10° 20:53:19 10° 24° (NNE) 1,468 -1.1 -13.3°
Enters shadow 20:54:46 - 43° (NE) 1,825 -0.8 -13.5°
